Hourly Data Report for January 02, 2018

All times are specified in Local Standard Time (LST). Add 1 hour to adjust for Daylight Saving Time where and when it is observed.

VANCOUVER INTL A
BRITISH COLUMBIA

49°11'41.000" N
123°11'02.000" W
4.30 m
1108395
71892
YVR

Download Data

Hourly Data (January 2018)
Hourly Data Report for January 2, 2018
Temp Definition
°C
Dew Point Temp Definition
°C
Rel Hum Definition
%
Wind Dir Definition
10's deg

Wind Spd Definition
km/h
Visibility Definition
km
Stn Press Definition
kPa
Hmdx Definition


Wind Chill Definition


Weather Definition


TIME
00:00 Legend Double Dagger -2.0 -2.7 95 10 10 32.2 103.14   -6 LegendNANA
01:00 Legend Double Dagger -2.1 -2.6 96 9 9 32.2 103.13   -6 Mostly Cloudy
02:00 Legend Double Dagger -2.9 -3.4 96 10 11 32.2 103.13   -7 LegendNANA
03:00 Legend Double Dagger -2.6 -3.0 97 9 8 32.2 103.12   -6 LegendNANA
04:00 Legend Double Dagger -2.3 -2.6 97 7 5 32.2 103.09   -4 Cloudy
05:00 Legend Double Dagger -3.3 -3.7 97 8 4 32.2 103.03   -5 LegendNANA
06:00 Legend Double Dagger -2.7 -3.0 98 11 8 32.2 102.98   -6 LegendNANA
07:00 Legend Double Dagger -1.8 -2.4 96 10 10 24.1 102.96   -5 Cloudy
08:00 Legend Double Dagger -1.6 -2.0 96 10 8 24.1 102.89   -5 LegendNANA
09:00 Legend Double Dagger -0.9 -1.5 96 11 5 24.1 102.90   -3 LegendNANA
10:00 Legend Double Dagger 0.0 -0.9 93 10 7 24.1 102.91   -2 Cloudy
11:00 Legend Double Dagger 0.9 -0.5 90 13 7 24.1 102.88     LegendNANA
12:00 Legend Double Dagger 2.1 0.4 88 11 8 24.1 102.81     LegendNANA
13:00 Legend Double Dagger 2.2 0.6 89 12 8 24.1 102.74     Cloudy
14:00 Legend Double Dagger 2.8 1.1 89 14 7 19.3 102.69     LegendNANA
15:00 Legend Double Dagger 3.0 1.1 88 36 3 24.1 102.63     LegendNANA
16:00 Legend Double Dagger 2.3 1.1 92 0 1 24.1 102.59     Cloudy
17:00 Legend Double Dagger 2.4 1.1 91 18 5 24.1 102.58     LegendNANA
18:00 Legend Double Dagger 2.4 1.1 91 15 10 24.1 102.54     LegendNANA
19:00 Legend Double Dagger 2.0 0.7 91 9 10 24.1 102.54     Cloudy
20:00 Legend Double Dagger 1.8 0.5 92 11 10 24.1 102.53     LegendNANA
21:00 Legend Double Dagger 1.2 0.3 94 10 8 24.1 102.54     LegendNANA
22:00 Legend Double Dagger 1.8 0.6 92 9 7 32.2 102.52     Mostly Cloudy
23:00 Legend Double Dagger 1.8 0.6 92 9 7 32.2 102.49     LegendNANA

Notes on Data Quality.

Legend

  • E = Estimated
  • M = Missing
  • NA = Not Available
  • ‡ = Partner data that is not subject to review by the National Climate Archives
Date modified: